Lid_Strength_Index
-1 0 1 4 8 8 10 8 6 8 7 4 5 6 8 7 9 11 1 1 1 1 -0 -0 -0 -1 -1 -1 -1 -1 -1 -1 -1 -1 -1 -1 -1 -1 -1 -1 -1 -1 -1 -1 -1 -1 -1 -1 -1
-1 0 2 6 10 11 9 6 7 6 5 4 5 5 8 9 4 3 3 1 1 0 -0 -0 -1 -1 -1 -1 -1 -1 -1 -1 -1 -1 -1 -1 -1 -1 -1 -1 -1 -1 -1 -1 -1 -1 -1 -1 -1
-0 0 5 8 10 11 10 7 6 5 4 4 5 4 5 7 4 3 1 0 0 0 -0 -0 -0 -1 -1 -1 -1 -1 -1 -1 -1 -1 -1 -1 -1 -1 -1 -1 -1 -1 -1 -1 -1 -1 -1 -1 -1
2 3 5 10 11 9 9 6 6 5 4 4 4 5 4 2 3 2 1 0 0 0 -0 -0 -1 -1 -1 -1 -1 -1 -1 -1 -1 -1 -1 -1 -1 -1 -1 -1 -1 -1 -1 -1 -1 -1 -1 -1 -2
2 4 9 10 10 8 7 6 6 7 6 4 4 5 6 3 1 1 1 1 1 0 -0 -0 -0 -1 -1 -1 -1 -1 -1 -1 -1 -1 -1 -1 -1 -1 -1 -1 -1 -1 -1 -1 -1 -1 -2 -2 -2
6 5 10 11 10 8 6 5 5 7 6 5 5 4 6 2 2 1 1 1 0 0 -0 -0 -1 -0 -1 -1 -1 -1 -1 -1 -1 -1 -1 -1 -1 -1 -1 -1 -2 -2 -2 -1 -1 -2 -2 -2 -2
7 7 10 10 9 8 7 5 5 5 7 5 4 5 5 3 2 1 1 0 0 0 0 -0 -0 -1 -1 -1 -1 -1 -1 -1 -1 -1 -1 -1 -1 -1 -1 -2 -2 -2 -1 -2 -2 -2 -2 -2 -2
6 7 9 9 9 9 6 5 4 5 5 3 3 5 7 3 1 1 1 1 1 0 0 0 -0 -0 -0 -0 -1 -1 -1 -1 -1 -1 -1 -1 -1 -1 -2 -2 -2 -2 -2 -2 -2 -2 -2 -2 -2
4 8 10 9 9 8 5 6 4 3 4 4 3 4 3 2 1 2 2 2 1 1 0 0 0 -0 -0 -0 -1 -1 -1 -1 -1 -1 -1 -1 -1 -1 -1 -2 -3 -2 -2 -2 -2 -2 -2 -2 -1
6 8 9 7 6 7 5 5 5 5 5 5 4 3 3 2 2 3 3 3 2 2 1 0 0 -0 -0 -0 -1 -1 -1 -1 -1 -1 -1 -1 -1 -1 -1 -2 -2 -2 -3 -2 -2 -2 -1 -1 -0
7 8 6 6 6 5 5 5 4 5 6 5 4 5 3 3 3 3 3 2 2 1 1 0 0 -0 -0 0 -0 -0 -0 -1 -1 -1 -1 -1 -1 -1 -1 -1 -1 -1 -2 -0 -1 -1 -0 -1 -0
7 6 6 5 5 5 5 5 6 5 5 3 3 3 3 4 4 3 3 3 2 2 1 1 0 0 -0 -0 -0 -0 -0 -0 -0 -1 -1 -1 -0 -0 -0 -0 -0 -0 -1 -0 -0 -0 -0 -0 -1
6 6 5 4 4 5 4 6 6 6 4 3 3 3 3 3 3 3 2 2 2 2 1 1 0 0 0 0 -0 -0 -0 -0 -0 -0 -1 -1 -0 0 -0 -0 -0 -0 -1 -0 0 0 -0 -0 -0
5 6 5 5 5 5 6 5 5 5 4 4 3 3 3 3 3 3 3 2 2 2 1 1 1 0 0 0 -0 0 -0 -0 -0 -1 -1 -1 -1 -0 -0 -0 -0 -0 -1 -1 -0 0 0 0 -0
5 7 6 6 5 6 5 7 7 4 4 5 4 3 3 3 3 3 2 3 2 2 1 1 1 0 0 0 0 -0 -0 -0 -0 -0 -1 -1 -1 -0 -0 -0 0 -0 -1 -0 -0 -0 -0 0 1
7 7 10 7 6 5 6 9 6 4 5 6 5 4 3 3 3 3 2 2 2 2 2 1 1 1 0 -0 -0 -0 -0 -0 -0 -1 -1 -1 -1 -1 -1 0 0 -0 -0 -0 0 1 1 1 2
8 11 10 8 6 6 7 8 6 4 4 5 4 4 3 4 4 3 2 2 2 2 2 1 1 1 1 0 -0 -0 -1 -0 -0 -1 -1 -1 -1 -1 -0 -0 -0 -1 -0 1 1 1 1 2 1
11 10 9 10 7 7 8 8 6 5 5 5 4 4 4 4 3 3 3 2 2 2 1 1 1 1 1 1 0 0 -0 -0 -1 -0 -0 -1 -1 -1 -0 -0 -0 -0 1 1 1 1 1 2 2
8 10 11 9 7 8 8 8 7 5 5 5 5 4 4 4 3 2 3 2 2 2 2 1 2 1 1 1 2 2 2 1 0 -0 -0 -0 -1 -0 -0 -0 0 0 1 1 1 1 1 2 1
8 10 10 9 7 8 8 8 6 6 5 5 5 5 4 4 3 3 3 3 3 2 2 2 2 1 1 1 1 1 1 1 0 -0 -0 -0 -0 -0 -0 -0 0 0 2 2 1 1 1 2 2
9 10 10 10 8 7 8 9 8 6 5 5 4 4 4 4 4 4 4 4 3 3 2 2 2 1 1 1 1 1 1 1 1 1 1 0 -0 -0 -0 -0 -0 0 0 1 1 2 3 5 3
11 8 8 9 10 13 8 13 9 7 7 6 5 5 4 4 4 4 4 4 3 3 2 2 1 1 1 1 1 2 2 3 2 1 1 0 -0 -0 -0 -0 1 0 1 3 3 3 3 3 5
11 9 10 10 11 13 12 13 10 7 8 7 6 5 4 3 4 4 4 4 3 2 2 2 1 1 1 1 1 2 2 2 1 1 1 1 0 0 1 1 1 2 3 3 2 3 3 4 5
8 11 11 11 12 19 14 12 11 9 8 7 5 5 4 4 3 4 3 3 3 2 2 2 2 2 1 1 1 1 2 2 2 2 2 1 1 1 1 2 3 3 3 3 3 3 4 4 4
9 13 17 18 18 18 10 13 12 7 6 6 6 5 4 3 3 4 4 4 3 3 2 2 2 2 1 1 1 1 1 1 2 2 2 2 2 2 3 4 3 3 4 4 4 3 4 4 4
10 12 18 23 18 14 10 14 11 6 5 5 5 4 4 4 3 4 4 4 4 3 3 2 2 2 2 1 1 1 1 1 1 1 1 1 2 3 4 4 3 4 4 4 4 5 4 4 4
13 14 11 17 15 18 12 10 7 6 6 6 5 5 4 4 3 4 4 4 3 3 3 3 3 2 2 2 1 1 1 1 1 1 1 3 4 4 5 5 5 4 5 5 5 5 6 5 4
10 9 15 16 21 20 13 13 11 8 7 6 6 5 5 4 4 4 4 4 3 3 3 2 2 2 2 1 1 1 1 1 3 3 5 5 5 5 6 5 6 6 6 5 6 5 6 6 5
11 13 14 14 16 19 17 14 9 10 7 7 6 5 4 4 4 4 4 4 3 3 3 3 2 2 2 2 2 3 3 4 5 6 7 6 6 6 6 6 6 7 6 6 6 6 6 6 6
7 13 13 18 18 16 16 16 9 9 6 5 5 5 4 4 4 4 4 4 4 3 3 3 3 2 2 4 4 5 5 6 7 7 7 6 7 7 7 7 7 7 7 7 7 7 7 7 7